Home   Weather   Kulmbach   Past weeks

Flag for Germany Past Weather in Kulmbach, Bavaria, Germany — Yesterday and Last 2 Weeks

Now
37 °F

Fog.


Feels Like: 37 °F
Forecast: 34 / 58 °F
Wind: No wind

Location: Grafenwoehr

Current Time: Apr 29, 2017 at 2:11:49 am

Latest Report: Apr 29, 2017 at 12:59 am


Visibility: 6 mi

Pressure: 30.02 "Hg

Humidity: 95%

Dew Point: 36 °F

Location of KulmbachLocation

Past Weather in Kulmbach — Graph

°F

Kulmbach Temperature Yesterday

Maximum temperature yesterday: 48 °F (at 11:58 am)
Minimum temperature yesterday: 37 °F (at 11:59 pm)
Average temperature yesterday: 42 °F

High & Low Weather Summary for the Past Weeks

 TemperatureHumidityPressure
High57 °F (Apr 24, 4:58 pm)100% (Apr 17, 12:01 pm)30.58 "Hg (Apr 17, 12:01 pm)
Low21 °F (Apr 21, 4:58 am)33% (Apr 21, 2:58 pm)29.70 "Hg (Apr 25, 5:58 am)
Average41 °F76%30.04 "Hg
* Reported Apr 14 12:58 am — Apr 29 12:59 am, Kulmbach, Weather by CustomWeather, © 2017

Note: Actual official high and low records may vary slightly from our data, if they occured in-between our weather recording intervals... More about our weather records

Advertising

Kulmbach Weather History for the Previous 24 Hours

Scroll right to see more
 ConditionsComfort  
Time TempWeatherWind HumidityBarometerVisibility
12:59 am
Sat, Apr 29
37 °FFog.No wind95%30.02 "Hg6 mi
11:59 pm
Fri, Apr 28
37 °FFog.No wind93%30.02 "Hg6 mi
10:59 pm39 °FPassing clouds.No wind90%30.01 "HgN/A
10:17 pm41 °FMostly cloudy.No wind87%29.97 "HgN/A
9:59 pm41 °FOvercast.No wind87%30.01 "HgN/A
8:59 pm42 °FPassing clouds.No wind83%29.98 "HgN/A
7:58 pm45 °FPartly sunny.5 mph61%29.95 "HgN/A
6:59 pm47 °FPartly sunny.8 mph55%29.92 "HgN/A
5:59 pm47 °FMore clouds than sun.7 mph57%29.92 "HgN/A
4:59 pm46 °FMostly cloudy.9 mph62%29.90 "HgN/A
3:58 pm48 °FMostly cloudy.3 mph66%29.88 "HgN/A
2:59 pm45 °FCloudy.No wind76%29.89 "HgN/A
2:28 pm43 °FDrizzle. Mostly cloudy.No wind76%29.86 "HgN/A
2:06 pm46 °FLight rain. Mostly cloudy.8 mph62%29.86 "HgN/A
1:59 pm47 °FMostly cloudy.3 mph57%29.89 "HgN/A
12:58 pm46 °FOvercast.No wind57%29.88 "HgN/A
11:58 am48 °FCloudy.8 mph58%29.84 "HgN/A
10:58 am46 °FBroken clouds.5 mph66%29.88 "HgN/A
9:59 am44 °FPartly sunny.No wind68%29.89 "HgN/A
9:44 am45 °FMostly cloudy.6 mph66%29.85 "HgN/A
8:58 am43 °FPartly sunny.No wind81%29.89 "HgN/A
8:06 am39 °FPartly sunny.3 mph93%29.85 "HgN/A
7:59 am39 °FDrizzle. Partly sunny.No wind93%29.89 "HgN/A
7:39 am39 °FDrizzle. Fog.No wind93%29.85 "Hg6 mi
7:37 am39 °FFog.No wind93%29.85 "Hg6 mi
7:12 am39 °FDrizzle. Fog.5 mph93%29.85 "Hg6 mi
6:58 am39 °FLight rain. Fog.No wind93%29.90 "Hg4 mi
5:58 am37 °FFog.No wind100%29.88 "Hg5 mi
4:59 am37 °FMostly cloudy.No wind100%29.88 "HgN/A
3:58 am39 °FFog.No wind93%29.89 "Hg5 mi
2:59 am38 °FFog.No wind96%29.91 "Hg5 mi
Weather by CustomWeather, © 2017

See weather overviewHow to use our weather pages